Starlink 5400

operational
NORAD ID: 54861 Int'l Des: 2022-177 Owner: SPXS Country: US Constellation: starlink
LEOCIRCULAR

Über Starlink 5400

Beschreibung wird geladen...

Live-Position

3D-Globus wird geladen...

Nächste Überflüge

Höhenverlauf

Altitude vs Time

uPlot chart will show altitude changes over time

Zweizeiliger Elementsatz

1 54861U 22177AT 25258.31574064 .00001775 00000-0 14637-3 0 9999
2 54861 43.0089 353.3305 0001201 270.6578 89.4127 15.02555372150722
Epoch: 15. Sept. 2025 • Age: 17 hours

Aktueller Status

Höhe 571.1 km
Geschwindigkeit 7.58 km/s
Subsatellitenpunkt -41.96°S, 122.38°W
Startdatum 28. Dez. 2022
Alter 2.7 years
Typ internet

Technische Details

Klassifizierung Payload
Masse 305.00 kg
Trockenmasse 290.00 kg
Gesamtmasse 305.00 kg
Länge 0.20 m
Durchmesser 2.80 m
Spannweite 9.00 m
Form Box + pan
Hersteller SPXS
Bus-Typ Starlink
Phasenstatus In Orbit
Besitzer/Staat SPXS/US

Große Konstellationen

Loading constellations...